COSMOS 2465 (737)

Last updated on Mon Oct 16 2017 00:19:01 GMT+0000 (Coordinated Universal Time)

1 37138U 10041B 17288.24818219 .00000018 00000-0 00000-0 0 9998 2 37138 64.6156 299.8315 0036411 172.8405 32.2943 2.13097601 55407
UTC large
Height (km)
Speed (km/s)
/
Latitude / Longitude
Inclination (degrees)
Orbital Period (minutes)
Azimuth
Elevation
Range (km)
Doppler Factor

Next 0 passes for location: London (51.5072 / 0.1276)

Sorry there are no passes over London.
COSMOS 2465 (737)